LiveATC.Net - Listen to live air traffic control over the Internet! Contact LiveATC.net for advertising information


ICAO: N57  IATA: N57   Airport: New Garden Airport
City: Toughkenamon   State/Province: Pennsylvania
Country: United States   Continent: North America
KMQS METAR Weather: KMQS 200915Z AUTO 00000KT 5SM BR SCT017 SCT060 BKN080 13/13 A3030 RMK AO2
N57 Flight Activity (FlightAware)
N57 CTAF
Feed Status: DOWN
Last heard on: 2014-08-17 19:30:03 (33 days 14 hours 31 minutes ago)
N57 CTAF Audio Archives
FacilityFrequency
New Garden CTAF123.050


NOTICE

Unauthorized use prohibited. See LiveATC.net Terms of Service


Find LiveATC Audio Streams


Airport/ARTCC Code

Frequency
(e.g., 124.400, 128.75)
Site-wide search

Browse LiveATC Feeds
LiveATC Coverage Map
Top 50 LiveATC Feeds
Bad Weather Areas

LiveATC FAQ
Offer a LiveATC Feed
Contact LiveATC.net
Press Inquiries

LiveATC on iPhone
LiveATC on Android

LiveATC Mobile
(Mobile browser)

ATC Audio Archives
Interesting Recordings

LiveATC Forums


Home Page
About LiveATC.net
Make a Donation
LiveATC Bookstore

Terms of Use
Privacy Policy

ATC/Radar Sites
U.S. ARTCC Freqs
Canadian Air Freqs

AIRMETs/SIGMETs

FAA Airport Status
Nat'l Airspace Status
Arrival Demand Charts


Server Software By:
Icecast.org
Liquidsoap

Please make a donation to help us keep growing!